GLO1116 SBSP-SBCT

Flight info

Callsign GLO1116
Flight time N/A
Altitude 26000
Route SOVSI UZ85 RAXIT
Aircraft B38M/M-SDE1FGHILORVWXY/HB1

Departure

Time N/A
Airport Congonhas–Deputado Freitas Nobre Airport (SBSP)

Arrival

Time 2026-04-27 02:08
Airport Curitiba-Afonso Pena International Airport (SBCT)
Time Latitude Longitude Altitude Speed Heading
2026-04-27 01:45 -24.57223 -47.84596 27912 ft 450 kts 229°
2026-04-27 01:46 -24.59513 -47.86935 27915 ft 450 kts 229°
2026-04-27 01:46 -24.61808 -47.89279 27915 ft 450 kts 229°
2026-04-27 01:46 -24.64097 -47.91619 27915 ft 450 kts 229°
2026-04-27 01:46 -24.66387 -47.93960 27916 ft 450 kts 229°
2026-04-27 01:47 -24.68677 -47.96303 27915 ft 450 kts 229°
2026-04-27 01:47 -24.70969 -47.98650 27912 ft 450 kts 230°
2026-04-27 01:47 -24.73214 -48.00944 27862 ft 432 kts 230°
2026-04-27 01:47 -24.75388 -48.03171 27449 ft 424 kts 230°
2026-04-27 01:48 -24.77533 -48.05374 26928 ft 420 kts 230°
2026-04-27 01:48 -24.79663 -48.07561 26382 ft 417 kts 230°
2026-04-27 01:48 -24.81774 -48.09727 25852 ft 414 kts 230°
2026-04-27 01:48 -24.83866 -48.11875 25312 ft 408 kts 230°
2026-04-27 01:49 -24.85924 -48.13989 24851 ft 403 kts 230°
2026-04-27 01:49 -24.87945 -48.16065 24308 ft 402 kts 230°
2026-04-27 01:49 -24.89987 -48.18165 23777 ft 399 kts 230°
2026-04-27 01:49 -24.91998 -48.20232 23227 ft 393 kts 230°
2026-04-27 01:50 -24.93981 -48.22273 22672 ft 387 kts 230°
2026-04-27 01:50 -24.95944 -48.24296 22185 ft 383 kts 230°
2026-04-27 01:50 -24.97783 -48.26361 21623 ft 371 kts 239°
2026-04-27 01:50 -24.99020 -48.28790 21111 ft 361 kts 248°
2026-04-27 01:51 -25.00152 -48.31254 20630 ft 359 kts 248°
2026-04-27 01:51 -25.01271 -48.33718 20135 ft 358 kts 248°
2026-04-27 01:51 -25.02376 -48.36171 19622 ft 356 kts 248°
2026-04-27 01:51 -25.03475 -48.38622 19095 ft 357 kts 248°
2026-04-27 01:52 -25.04557 -48.41039 18599 ft 355 kts 247°
2026-04-27 01:52 -25.05646 -48.43471 18063 ft 351 kts 247°
2026-04-27 01:52 -25.06726 -48.45879 17494 ft 348 kts 247°
2026-04-27 01:52 -25.07792 -48.48259 17031 ft 343 kts 248°
2026-04-27 01:53 -25.08843 -48.50605 16550 ft 337 kts 248°
2026-04-27 01:53 -25.11858 -48.57353 15231 ft 335 kts 248°
2026-04-27 01:54 -25.12891 -48.59665 14767 ft 337 kts 248°
2026-04-27 01:54 -25.13921 -48.61969 14314 ft 333 kts 248°
2026-04-27 01:54 -25.14941 -48.64253 13836 ft 329 kts 248°
2026-04-27 01:54 -25.15942 -48.66505 13329 ft 325 kts 248°
2026-04-27 01:55 -25.16930 -48.68741 12839 ft 322 kts 248°
2026-04-27 01:55 -25.17904 -48.70939 12412 ft 315 kts 248°
2026-04-27 01:55 -25.18864 -48.73109 12013 ft 314 kts 248°
2026-04-27 01:55 -25.19808 -48.75247 11570 ft 312 kts 248°
2026-04-27 01:56 -25.21500 -48.79599 10850 ft 300 kts 264°
2026-04-27 01:56 -25.21660 -48.81823 10680 ft 281 kts 268°
2026-04-27 01:56 -25.21797 -48.83904 10462 ft 267 kts 269°
2026-04-27 01:57 -25.21920 -48.85896 10369 ft 253 kts 269°
2026-04-27 01:57 -25.22034 -48.87821 10287 ft 252 kts 269°
2026-04-27 01:57 -25.22148 -48.89754 10152 ft 252 kts 269°
2026-04-27 01:57 -25.22263 -48.91676 10026 ft 250 kts 269°
2026-04-27 01:58 -25.22374 -48.93588 9953 ft 250 kts 269°
2026-04-27 01:58 -25.22487 -48.95517 9788 ft 253 kts 269°
2026-04-27 01:58 -25.22606 -48.97442 9571 ft 248 kts 266°
2026-04-27 01:58 -25.23145 -48.99259 9489 ft 254 kts 250°
2026-04-27 01:59 -25.23864 -49.01038 9306 ft 259 kts 250°
2026-04-27 01:59 -25.24605 -49.02860 9114 ft 259 kts 250°
2026-04-27 01:59 -25.25347 -49.04664 8944 ft 256 kts 250°
2026-04-27 01:59 -25.26079 -49.06434 8800 ft 252 kts 250°
2026-04-27 02:00 -25.26812 -49.08200 8659 ft 253 kts 250°
2026-04-27 02:00 -25.27546 -49.09962 8550 ft 251 kts 250°
2026-04-27 02:00 -25.28261 -49.11677 8420 ft 240 kts 250°
2026-04-27 02:00 -25.28947 -49.13323 8305 ft 231 kts 250°
2026-04-27 02:01 -25.29609 -49.14906 8184 ft 223 kts 249°
2026-04-27 02:01 -25.30248 -49.16441 8064 ft 217 kts 250°
2026-04-27 02:01 -25.30879 -49.17957 7944 ft 217 kts 250°
2026-04-27 02:01 -25.31510 -49.19473 7824 ft 217 kts 250°
2026-04-27 02:02 -25.32131 -49.20969 7714 ft 217 kts 250°
2026-04-27 02:02 -25.32764 -49.22489 7591 ft 219 kts 250°
2026-04-27 02:02 -25.33575 -49.23930 7370 ft 227 kts 231°
2026-04-27 02:02 -25.34702 -49.25157 7093 ft 226 kts 230°
2026-04-27 02:03 -25.35810 -49.26370 6793 ft 223 kts 230°
2026-04-27 02:03 -25.36910 -49.27564 6524 ft 220 kts 230°
2026-04-27 02:03 -25.38001 -49.28742 6212 ft 218 kts 229°
2026-04-27 02:03 -25.39104 -49.29869 5935 ft 215 kts 220°
2026-04-27 02:04 -25.40541 -49.30357 5707 ft 224 kts 182°
2026-04-27 02:04 -25.42024 -49.29823 5498 ft 227 kts 149°
2026-04-27 02:04 -25.43100 -49.28624 5324 ft 210 kts 131°
2026-04-27 02:04 -25.44006 -49.27463 5115 ft 194 kts 137°
2026-04-27 02:05 -25.44933 -49.26419 4946 ft 192 kts 139°
2026-04-27 02:05 -25.45842 -49.25412 4799 ft 178 kts 139°
2026-04-27 02:05 -25.46702 -49.24452 4610 ft 173 kts 138°
2026-04-27 02:05 -25.47537 -49.23519 4358 ft 167 kts 138°
2026-04-27 02:06 -25.48352 -49.22612 4128 ft 165 kts 137°
2026-04-27 02:06 -25.49156 -49.21715 3912 ft 163 kts 137°
2026-04-27 02:06 -25.49950 -49.20823 3711 ft 162 kts 136°
2026-04-27 02:06 -25.50739 -49.19936 3449 ft 160 kts 135°
2026-04-27 02:07 -25.51514 -49.19079 3204 ft 155 kts 135°
2026-04-27 02:07 -25.52264 -49.18231 3021 ft 152 kts 134°
2026-04-27 02:07 -25.52729 -49.17709 2998 ft 135 kts 136°
2026-04-27 02:07 -25.53427 -49.16929 2997 ft 75 kts 134°
2026-04-27 02:08 -25.53574 -49.16771 2997 ft 20 kts 156°
2026-04-27 02:08 -25.53627 -49.16821 2997 ft 9 kts 278°
2026-04-27 02:08 -25.53606 -49.16929 2998 ft 14 kts 284°
2026-04-27 02:08 -25.53540 -49.17030 2998 ft 19 kts 317°
2026-04-27 02:09 -25.53480 -49.17119 2998 ft 13 kts 266°
2026-04-27 02:09 -25.53506 -49.17165 2998 ft 10 kts 225°
2026-04-27 02:09 -25.53552 -49.17214 2998 ft 6 kts 224°
2026-04-27 02:09 -25.53566 -49.17229 2998 ft 0 kts 224°